Theta_e
335 335 336 337 334 334 334 333 340 338 340 344 334 333 332 335 338 340 342 342 345 345 342 342 344 344 343 344 345 342 340 339 341 338 336 338 341 342 343 345 344 344 347
333 335 337 337 334 336 339 338 340 335 336 345 342 336 333 336 336 340 340 342 343 346 346 343 344 345 344 343 343 342 339 340 340 334 331 327 330 335 340 341 343 341 345
333 334 336 335 337 337 340 333 335 337 342 344 338 336 335 334 333 335 341 344 345 346 345 344 343 344 343 342 341 341 339 335 337 339 332 325 323 327 334 338 339 341 342
336 337 336 335 337 340 342 339 343 347 346 340 338 334 331 328 331 337 340 344 346 345 345 345 344 343 343 343 342 344 339 338 335 337 340 336 333 325 322 335 337 340 339
337 335 336 339 343 343 342 345 337 347 349 340 338 339 336 338 341 341 339 338 341 345 345 343 344 343 343 342 342 341 339 340 337 336 335 334 333 332 327 323 331 335 338
340 339 340 343 343 344 349 348 346 346 346 343 342 341 341 339 337 336 333 337 337 340 342 343 341 340 341 341 341 340 340 339 338 337 337 334 330 328 328 327 329 329 332
343 342 341 341 340 343 344 347 346 341 345 345 343 346 344 339 336 334 332 334 335 336 337 339 340 340 341 341 340 339 338 337 335 335 335 337 335 335 332 331 331 329 332
341 339 340 340 339 343 343 347 344 341 342 342 343 345 344 340 339 334 335 335 334 335 336 339 339 340 341 339 338 336 337 336 336 335 335 335 336 337 336 331 329 328 329
340 338 336 340 338 339 342 345 345 343 341 341 342 342 341 336 335 335 336 335 335 337 337 338 337 340 338 337 335 334 333 333 333 334 335 335 336 337 337 335 334 330 324
339 338 337 335 337 336 344 348 343 342 341 340 342 343 339 337 337 336 335 334 334 335 335 335 334 336 336 333 331 331 332 332 332 332 332 334 334 335 336 335 333 334 329
334 335 334 334 334 340 346 345 343 341 338 339 340 342 341 338 338 335 334 334 334 334 334 336 334 333 333 332 329 328 329 329 329 329 330 330 332 333 334 334 332 331 325
335 336 334 335 334 343 344 344 341 339 338 338 340 342 339 337 335 333 334 332 332 333 333 333 331 333 332 329 328 328 328 325 325 325 326 327 334 330 330 328 325 323 322
334 334 334 335 339 342 342 342 340 339 337 338 339 339 335 336 334 334 334 334 332 332 332 331 330 330 331 329 328 326 324 322 322 322 322 324 328 325 324 324 321 323 324
331 335 335 336 337 340 340 340 340 339 337 338 337 337 335 335 335 334 333 334 333 331 330 329 329 327 328 330 328 323 321 320 320 321 321 322 325 324 321 320 319 320 321
337 336 334 334 334 335 337 340 340 338 337 336 336 337 336 336 336 334 335 334 332 331 330 329 323 321 323 328 327 323 320 319 318 319 321 322 328 330 326 320 316 316 318
339 337 336 335 335 336 336 337 338 336 335 335 336 338 338 337 336 336 335 333 332 331 329 324 320 318 323 321 325 326 323 321 318 318 318 319 320 323 326 325 323 319 316
341 340 336 334 334 337 338 337 337 336 333 332 334 338 339 337 336 339 336 335 331 331 328 320 318 317 319 319 322 325 322 320 320 319 315 315 316 315 315 320 322 323 323
338 338 338 334 332 335 337 338 337 336 334 333 335 337 336 336 336 337 334 334 333 330 325 321 318 316 317 317 318 323 320 317 317 316 313 309 309 309 308 305 306 308 312
336 338 339 335 332 334 338 338 337 338 336 333 333 334 336 334 335 332 329 330 332 333 330 324 319 316 314 313 316 321 320 317 315 315 313 310 308 312 309 301 298 297 299
339 340 337 335 334 337 339 336 334 334 332 331 332 332 332 332 331 331 330 328 329 332 333 330 323 316 314 311 311 318 321 315 313 310 310 313 308 310 308 301 301 301 300
334 335 336 335 336 337 335 333 332 329 330 331 330 329 327 326 328 331 329 326 329 333 332 330 328 322 315 312 309 310 320 318 314 311 306 303 307 304 306 306 304 305 304
332 332 331 329 330 334 333 329 329 330 331 329 327 325 327 331 331 331 329 327 328 329 330 329 328 327 320 311 308 310 314 318 317 313 309 304 303 301 303 302 306 305 307
331 330 328 327 329 333 332 332 332 332 331 328 326 326 325 326 327 326 327 328 330 331 330 330 328 327 324 314 307 308 311 314 316 315 311 304 300 300 301 304 304 304 304
329 328 326 324 324 329 332 331 331 332 331 331 329 327 324 323 321 321 323 326 331 330 331 329 327 327 323 317 312 312 312 312 314 313 308 304 302 302 304 304 302 303 301
330 327 323 322 322 323 323 324 325 328 327 327 327 327 326 324 319 314 311 313 318 313 325 330 329 326 324 321 311 310 311 309 307 302 300 298 299 300 302 303 302 303 300
328 325 324 324 323 323 323 322 323 324 323 321 321 322 325 323 318 316 314 305 302 300 298 302 317 318 310 307 303 300 300 301 300 301 299 298 299 301 302 303 303 304 305
Wind_Speed
9 5 3 4 4 5 7 6 5 3 4 3 1 3 4 3 1 1 2 4 4 5 5 4 5 5 4 5 5 3 5 2 1 0 3 3 5 5 4 4 4 1 2
12 7 4 3 3 4 5 6 7 6 3 2 2 3 2 2 1 2 3 3 4 4 4 4 4 4 3 3 3 3 2 1 3 3 2 3 4 3 5 4 3 3 2
16 9 6 5 3 3 4 5 6 7 5 4 4 4 3 3 3 2 1 2 1 4 2 3 2 4 3 2 0 2 4 2 1 3 4 1 3 2 4 7 5 4 3
10 7 6 5 5 5 4 4 5 6 5 6 5 5 3 3 2 1 2 1 3 3 2 4 4 3 2 2 0 0 1 2 3 1 3 1 3 2 1 3 4 5 5
12 12 10 7 3 5 5 5 4 5 6 6 5 3 3 3 3 2 2 2 3 1 4 4 4 4 2 2 2 1 2 2 2 3 2 2 2 1 2 2 2 4 4
12 10 7 6 5 5 4 5 6 5 6 6 6 6 7 5 3 2 2 1 3 3 3 4 4 3 3 3 3 3 3 2 2 2 4 3 3 3 3 3 3 4 3
8 6 6 6 6 7 6 5 5 2 5 8 6 6 7 6 5 3 3 5 1 1 2 1 4 4 4 4 4 5 4 2 1 1 3 3 4 3 3 5 3 3 1
5 5 6 5 5 6 7 6 6 4 5 6 6 5 6 4 4 4 4 4 3 2 2 0 2 6 6 5 5 3 3 3 2 3 2 2 3 3 4 5 7 4 2
7 7 6 7 7 7 8 8 7 4 4 6 6 5 5 5 6 5 5 4 3 3 3 2 4 6 6 6 5 4 4 4 3 4 4 2 1 2 4 4 8 5 4
7 10 8 8 8 7 7 7 5 6 6 6 6 5 6 6 6 6 6 6 4 3 4 4 4 5 6 5 5 4 3 5 3 3 5 4 3 3 3 5 4 3 6
7 3 7 8 7 6 8 8 7 6 4 7 5 6 5 5 6 5 4 6 4 5 4 4 4 5 5 5 5 5 6 6 5 4 5 5 4 3 3 4 3 4 4
4 6 9 7 7 6 6 8 6 7 6 6 6 6 6 7 6 5 5 3 4 3 6 7 6 6 5 4 4 6 5 5 5 5 6 5 3 5 5 4 5 5 3
2 6 5 6 7 6 6 6 7 7 6 6 6 5 5 6 7 6 6 4 4 6 6 7 6 6 5 5 5 5 6 5 5 6 6 5 6 5 4 5 6 5 7
9 5 7 6 5 6 6 7 6 6 6 6 6 6 6 6 6 6 6 6 5 6 5 6 6 6 5 5 5 5 6 6 6 6 5 5 5 5 5 6 6 6 7
12 12 10 7 6 6 6 6 6 6 6 6 6 6 6 6 7 7 6 6 6 6 6 7 6 5 6 4 6 5 6 6 6 6 6 6 7 8 7 4 5 6 6
13 14 11 9 7 7 6 6 6 7 6 6 7 5 6 6 7 8 7 6 6 6 6 6 7 7 4 6 8 7 5 6 6 6 5 6 9 10 10 11 9 7 8
12 10 12 11 8 8 8 7 7 6 7 7 6 6 7 5 3 4 5 5 6 5 6 6 7 7 6 7 8 11 6 6 5 5 4 5 4 7 7 11 10 7 7
8 7 8 8 7 6 6 6 6 7 5 5 3 3 4 5 3 3 7 3 4 3 7 6 5 6 4 7 8 10 7 6 6 6 5 6 5 4 6 7 7 6 5
7 2 6 7 7 7 6 6 6 6 6 4 4 6 5 4 3 7 6 3 1 3 4 5 7 7 5 6 9 8 6 6 6 5 6 6 6 4 6 8 7 5 4
7 5 7 7 8 6 7 7 6 6 6 7 6 5 5 6 6 6 7 5 4 3 4 4 4 6 7 7 9 7 4 6 5 4 4 6 6 6 8 7 6 6 3
7 8 9 7 5 5 6 6 6 5 5 7 6 3 2 4 4 5 4 2 2 6 7 6 5 6 7 7 9 9 5 5 5 4 4 3 6 6 9 8 6 6 5
7 8 10 7 3 4 6 7 6 3 5 6 6 3 2 3 3 4 4 5 4 2 6 6 6 4 5 7 8 7 10 9 7 6 4 4 9 8 7 6 7 7 6
7 3 6 7 6 6 8 10 3 3 6 6 6 5 2 3 4 4 1 3 4 4 5 6 5 5 5 4 9 10 8 10 5 5 7 8 8 6 5 6 9 6 3
8 3 6 6 5 6 7 7 4 2 4 5 4 3 3 2 3 3 2 3 4 5 5 6 7 6 5 5 4 4 4 6 5 7 5 5 6 5 3 0 3 2 3
6 4 4 4 6 5 6 5 5 3 4 3 1 2 3 2 1 2 2 2 1 1 3 5 7 8 8 9 9 9 6 5 6 6 3 2 2 3 3 2 3 2 2
7 6 5 6 6 5 6 5 4 5 5 3 2 3 3 3 2 2 3 3 5 7 7 9 4 3 4 11 15 13 11 12 15 4 4 4 4 5 4 4 3 1 5
Wind_Direction
186 172 221 312 134 142 141 133 147 143 127 120 122 108 124 122 94 269 227 196 222 202 208 224 232 224 214 219 219 194 213 262 195 94 329 298 247 250 241 228 240 117 229
180 171 214 248 249 160 123 145 168 167 163 154 178 125 143 110 140 146 260 237 241 247 230 228 219 178 190 215 205 183 165 204 173 143 105 321 328 344 3 6 50 87 73
172 171 191 224 222 176 177 184 161 154 175 172 110 72 53 47 29 301 182 255 228 254 205 231 217 177 152 161 132 148 178 194 338 199 151 78 241 10 3 42 50 62 92
166 165 194 226 219 198 197 208 163 156 148 144 123 140 146 133 201 240 317 148 114 135 138 114 115 94 101 117 160 141 167 142 225 350 229 198 146 155 97 28 36 33 58
167 174 193 212 200 153 183 195 194 158 147 148 142 129 125 141 147 134 104 61 53 94 98 91 84 101 100 114 114 114 159 176 162 195 189 210 201 179 132 120 96 43 14
168 178 177 188 156 148 158 169 190 172 155 160 176 161 144 138 127 117 94 152 68 25 5 105 115 99 79 92 98 111 120 146 188 216 196 183 162 173 156 126 111 100 24
152 135 156 166 158 158 186 178 186 170 145 117 146 138 138 147 136 130 131 114 101 64 334 303 101 104 101 92 91 93 82 62 61 318 206 193 191 156 136 123 128 124 98
92 135 178 178 180 180 187 173 194 197 141 144 145 122 123 125 137 116 130 128 154 166 187 269 104 98 110 95 77 79 79 77 59 60 83 151 200 178 155 145 143 129 102
166 175 178 199 207 183 196 177 187 189 150 156 133 145 135 136 130 130 126 140 165 163 150 107 72 81 86 92 97 87 78 62 36 41 48 81 70 178 150 138 159 143 138
206 178 186 203 207 183 184 143 174 181 163 155 154 156 154 138 126 138 148 151 167 143 105 73 69 80 96 99 94 87 85 80 43 37 53 42 35 74 114 145 135 127 132
202 229 182 205 188 165 150 156 161 153 161 161 156 149 152 137 131 137 157 166 161 152 151 136 74 108 105 97 101 96 73 69 59 39 53 46 43 62 70 113 109 105 104
168 175 204 195 163 165 154 156 150 148 178 170 153 167 155 126 138 149 155 165 139 120 115 112 105 116 116 120 91 72 69 79 61 40 47 26 37 54 59 66 75 99 109
147 167 182 182 164 159 146 140 144 160 175 164 158 158 165 143 155 164 155 152 137 113 117 118 117 122 136 115 95 99 89 72 66 59 53 33 62 54 61 80 90 100 104
281 141 141 155 144 153 152 152 154 168 171 164 162 169 176 168 158 168 169 148 160 135 148 129 126 119 113 120 108 98 89 79 71 67 65 59 75 96 86 80 95 106 108
167 152 151 152 148 153 159 161 162 171 173 176 165 191 198 173 161 164 172 161 167 162 159 128 118 118 109 113 136 124 112 99 79 53 54 55 80 102 104 113 98 93 100
161 157 159 152 166 174 180 170 178 186 170 180 190 180 208 187 181 167 169 167 176 183 140 148 143 127 110 126 153 142 128 108 100 89 60 49 63 64 87 108 115 129 136
160 165 165 162 174 184 184 179 187 188 183 187 195 197 197 188 212 192 149 210 188 160 161 158 146 141 133 112 140 124 124 131 156 113 101 71 46 73 85 81 89 104 115
162 156 167 165 181 182 171 166 169 177 175 182 157 151 134 161 213 52 47 358 318 228 160 160 160 142 136 116 118 125 123 115 117 129 123 110 97 94 97 87 76 69 77
106 141 168 154 172 173 160 153 149 149 145 139 114 114 114 107 108 101 77 58 341 267 263 165 160 150 150 120 113 119 127 120 119 127 127 124 113 128 119 107 104 81 47
98 100 131 140 149 167 159 146 136 117 113 131 144 158 147 132 146 154 174 192 130 140 249 195 202 162 160 164 124 126 136 130 128 102 100 122 141 158 147 129 136 126 182
67 82 81 91 110 164 135 112 111 108 141 125 109 112 160 169 171 172 164 159 135 164 178 198 188 191 170 179 151 144 164 162 150 151 160 175 169 143 169 159 174 178 161
77 68 87 83 68 66 102 88 83 99 105 113 115 140 125 162 203 193 151 183 200 167 159 202 189 194 171 176 180 173 184 165 154 174 183 189 181 164 160 163 191 170 149
106 103 108 95 76 75 92 90 46 103 103 93 106 109 94 55 27 30 300 236 202 189 201 204 198 181 184 188 184 173 157 167 158 167 176 176 184 159 156 179 175 168 170
100 88 80 78 75 75 77 88 67 38 98 119 136 126 104 81 15 357 4 316 225 217 216 200 207 192 193 191 191 182 165 144 138 146 158 179 175 166 158 148 178 166 160
115 106 113 120 111 104 96 100 102 90 78 97 145 187 144 149 147 350 314 306 290 351 286 220 207 183 194 206 185 178 181 174 162 122 111 146 167 195 206 213 212 193 168
126 140 167 155 141 137 144 137 174 171 169 174 197 230 203 177 189 229 287 264 275 313 308 297 252 245 240 165 190 189 176 161 149 120 164 189 193 198 208 205 221 208 195